DC4AT Weather Reports


Display with metric or nautical units.
time (UTC)temp
F
wind
direction
speed
MPH
gust
MPH
rain 1hr
in
rain 24hr
in
rain mn
in
humidity
%
barometer
mb
20260901232720 55 61 0.0 0.0 0.00 0.02 0.00 83 1021.1
20260901231720 55 61 0.0 0.0 0.00 0.02 0.00 83 1021.0
20260901230720 55 61 0.0 0.0 0.00 0.02 0.00 83 1021.0
20260901225720 55 61 0.0 0.0 0.00 0.02 0.00 83 1020.9
20260901224720 55 61 0.0 0.0 0.00 0.02 0.00 83 1020.9
20260901223720 55 61 0.0 0.0 0.00 0.02 0.00 84 1020.8
20260901222720 56 61 0.0 0.0 0.00 0.02 0.00 83 1020.7
20260901221720 56 61 0.0 0.0 0.00 0.02 0.00 84 1020.7
20260901220720 56 61 0.0 0.0 0.00 0.02 0.02 84 1020.8
20260901215720 56 61 0.0 0.0 0.00 0.02 0.02 84 1020.8
20260901214720 57 61 0.0 0.0 0.00 0.02 0.02 84 1020.8
20260901213720 57 61 0.0 0.0 0.00 0.02 0.02 84 1020.8
20260901212720 57 61 1.0 3.0 0.00 0.02 0.02 84 1020.9
20260901211720 57 60 0.0 0.0 0.00 0.02 0.02 84 1020.9
20260901210720 57 60 0.0 0.0 0.00 0.02 0.02 85 1020.9
20260901205720 57 60 0.0 0.0 0.00 0.02 0.02 85 1020.9
20260901204720 57 60 0.0 0.0 0.00 0.02 0.02 85 1020.9
20260901203720 58 60 0.0 0.0 0.00 0.02 0.02 85 1020.9
20260901202720 58 60 0.0 0.0 0.00 0.02 0.02 85 1020.8
20260901201720 58 60 0.0 0.0 0.00 0.02 0.02 86 1020.8
20260901200720 58 60 0.0 0.0 0.00 0.02 0.02 86 1020.8
20260901195720 58 60 0.0 0.0 0.00 0.02 0.02 86 1020.8
20260901194720 58 60 0.0 0.0 0.00 0.02 0.02 86 1020.7
20260901193720 59 58 0.0 0.0 0.00 0.02 0.02 86 1020.8
20260901192721 59 58 0.0 0.0 0.00 0.02 0.02 86 1020.9
20260901191720 59 58 0.0 0.0 0.00 0.02 0.02 86 1020.8
20260901190721 59 58 0.0 0.0 0.00 0.02 0.02 86 1020.8
20260901185721 60 57 0.0 0.0 0.00 0.02 0.02 86 1020.7
20260901184721 60 57 0.0 0.0 0.00 0.02 0.02 86 1020.5
20260901183721 60 57 0.0 0.0 0.00 0.02 0.02 86 1020.4
20260901182721 60 53 0.0 0.0 0.00 0.02 0.02 86 1020.2
20260901181721 60 52 0.0 0.0 0.00 0.02 0.02 86 1020.2
20260901180721 60 51 0.0 2.0 0.00 0.02 0.02 86 1020.2
20260901175721 61 50 1.0 1.0 0.01 0.02 0.02 86 1020.1
20260901174721 61 49 1.0 4.0 0.01 0.02 0.02 85 1020.0
20260901173721 61 238 1.0 1.0 0.01 0.02 0.02 85 1020.0
20260901172721 61 219 2.0 5.0 0.01 0.02 0.02 85 1019.8
20260901171721 62 282 0.0 3.0 0.01 0.02 0.02 85 1019.8
20260901170721 62 282 0.0 0.0 0.01 0.02 0.02 85 1019.8
20260901165721 62 282 1.0 0.0 0.00 0.01 0.01 84 1019.7
20260901164721 62 266 4.0 8.0 0.01 0.01 0.01 84 1019.9
20260901163721 62 228 3.0 5.0 0.01 0.01 0.01 84 1019.7
20260901162721 61 253 3.0 8.0 0.01 0.01 0.01 84 1019.7
20260901161721 62 212 2.0 5.0 0.01 0.01 0.01 83 1019.7
20260901160721 63 217 3.0 6.0 0.01 0.01 0.01 81 1019.7
20260901155721 64 303 5.0 10.0 0.01 0.01 0.01 76 1019.7
20260901154721 65 257 7.0 16.0 0.00 0.00 0.00 73 1019.7
20260901153721 65 248 6.0 12.0 0.00 0.00 0.00 72 1019.5
20260901152721 65 245 6.0 13.0 0.00 0.15 0.00 71 1019.5
20260901151721 66 278 5.0 8.0 0.00 0.15 0.00 72 1019.5
20260901150721 66 264 5.0 13.0 0.00 0.15 0.00 73 1019.5
20260901145721 66 265 8.0 12.0 0.00 0.15 0.00 73 1019.5
20260901144721 66 283 8.0 13.0 0.00 0.15 0.00 73 1019.5
20260901143721 67 273 9.0 15.0 0.00 0.15 0.00 73 1019.4
20260901142721 68 285 8.0 14.0 0.00 0.15 0.00 71 1019.1
20260901141721 69 300 5.0 11.0 0.00 0.15 0.00 67 1019.1
20260901140721 69 234 5.0 9.0 0.00 0.15 0.00 67 1019.1
20260901135721 69 270 6.0 11.0 0.00 0.15 0.00 67 1019.1
20260901134721 69 280 7.0 12.0 0.00 0.15 0.00 67 1019.2
20260901133722 69 257 8.0 11.0 0.00 0.15 0.00 67 1019.2
20260901132721 69 237 7.0 12.0 0.00 0.18 0.00 67 1019.2
20260901131721 70 246 8.0 11.0 0.00 0.18 0.00 65 1019.2
20260901130721 70 246 6.0 9.0 0.00 0.18 0.00 65 1019.2
20260901125721 70 306 7.0 14.0 0.00 0.18 0.00 66 1019.2
20260901124721 70 248 7.0 14.0 0.00 0.18 0.00 66 1019.2
20260901123721 69 257 8.0 15.0 0.00 0.18 0.00 64 1019.2
20260901122721 70 266 9.0 11.0 0.00 0.25 0.00 68 1019.2
20260901121721 70 263 7.0 16.0 0.00 0.25 0.00 67 1019.4
20260901120721 69 273 6.0 10.0 0.00 0.25 0.00 68 1019.4
20260901115722 69 284 9.0 11.0 0.00 0.25 0.00 66 1019.4
20260901114722 70 240 8.0 16.0 0.00 0.25 0.00 65 1019.3
20260901113722 69 275 8.0 14.0 0.00 0.25 0.00 66 1019.2
20260901112722 69 222 8.0 13.0 0.00 0.25 0.00 67 1019.5
20260901111722 68 289 7.0 15.0 0.00 0.25 0.00 69 1019.4
20260901110722 68 236 8.0 11.0 0.00 0.25 0.00 72 1019.4
20260901105722 67 240 8.0 14.0 0.00 0.25 0.00 71 1019.4
20260901104722 67 258 7.0 11.0 0.00 0.25 0.00 74 1019.5
20260901103722 66 225 5.0 12.0 0.00 0.25 0.00 75 1019.4
20260901102722 65 224 6.0 11.0 0.00 0.30 0.00 77 1019.5
20260901101722 65 200 7.0 13.0 0.00 0.30 0.00 77 1019.5
20260901100722 65 242 5.0 10.0 0.00 0.30 0.00 78 1019.5
20260901095722 64 268 5.0 11.0 0.00 0.30 0.00 78 1019.5
20260901094722 64 236 5.0 8.0 0.00 0.30 0.00 81 1019.6
20260901093722 64 265 6.0 11.0 0.00 0.30 0.00 81 1019.6
20260901092722 64 234 7.0 13.0 0.00 0.30 0.00 81 1019.6
20260901091722 63 248 5.0 9.0 0.00 0.30 0.00 83 1019.6
20260901090722 63 240 5.0 8.0 0.00 0.30 0.00 83 1019.6
20260901085722 62 244 5.0 10.0 0.00 0.30 0.00 84 1019.5
20260901084722 62 248 7.0 10.0 0.00 0.30 0.00 83 1019.6
20260901083722 62 229 6.0 11.0 0.00 0.30 0.00 83 1019.6
20260901082722 62 270 6.0 12.0 0.00 0.30 0.00 83 1019.4
20260901081722 62 213 7.0 11.0 0.00 0.30 0.00 84 1019.4
20260901080722 62 249 5.0 12.0 0.00 0.30 0.00 85 1019.1
20260901075722 61 250 5.0 10.0 0.00 0.30 0.00 85 1019.1
20260901074722 61 205 6.0 8.0 0.00 0.30 0.00 85 1019.0
20260901073722 61 277 4.0 7.0 0.00 0.30 0.00 86 1018.9
20260901072722 60 263 2.0 7.0 0.00 0.30 0.00 86 1018.9
20260901071722 60 259 3.0 7.0 0.00 0.30 0.00 86 1018.9
20260901070722 60 292 4.0 7.0 0.00 0.30 0.00 86 1018.8
20260901065722 59 248 5.0 7.0 0.00 0.30 0.00 86 1018.8
20260901064722 59 284 6.0 10.0 0.00 0.30 0.00 86 1018.6
20260901063722 59 274 6.0 10.0 0.00 0.30 0.00 86 1018.6
20260901062722 59 281 6.0 11.0 0.00 0.30 0.00 86 1018.5
20260901061722 59 274 6.0 11.0 0.00 0.30 0.00 86 1018.4
20260901060722 59 284 4.0 7.0 0.00 0.30 0.00 86 1018.4
20260901055723 59 260 5.0 8.0 0.00 0.30 0.00 86 1018.4
20260901054722 59 257 6.0 9.0 0.00 0.30 0.00 86 1018.3
20260901053722 59 220 4.0 8.0 0.00 0.30 0.00 86 1018.3
20260901052722 58 296 2.0 4.0 0.00 0.30 0.00 86 1018.3
20260901051722 58 281 3.0 7.0 0.00 0.30 0.00 86 1018.2
20260901050722 58 274 3.0 6.0 0.00 0.30 0.00 85 1018.2
20260901045722 57 265 3.0 7.0 0.00 0.30 0.00 85 1018.1
20260901044722 57 290 1.0 4.0 0.00 0.30 0.00 84 1018.0
20260901043722 57 272 1.0 3.0 0.00 0.30 0.00 84 1017.8
20260901042722 56 119 0.0 1.0 0.00 0.30 0.00 84 1017.8
20260901041723 56 119 1.0 1.0 0.00 0.30 0.00 85 1017.5
20260901040723 56 119 1.0 3.0 0.00 0.30 0.00 85 1017.5
20260901035723 57 163 0.0 1.0 0.00 0.30 0.00 86 1017.5
20260901034723 57 163 0.0 2.0 0.00 0.30 0.00 86 1017.3
20260901033723 57 181 1.0 1.0 0.00 0.30 0.00 86 1017.1
20260901032723 58 261 2.0 5.0 0.00 0.30 0.00 86 1016.9
20260901031723 58 239 2.0 4.0 0.00 0.30 0.00 86 1016.9
20260901030723 58 241 5.0 8.0 0.00 0.30 0.00 86 1016.8
20260901025723 58 248 4.0 8.0 0.00 0.30 0.00 86 1016.8
20260901024723 58 248 6.0 9.0 0.00 0.30 0.00 86 1016.7
20260901023723 58 233 5.0 9.0 0.00 0.30 0.00 86 1016.6
20260901022723 58 234 4.0 9.0 0.00 0.30 0.00 86 1016.7
20260901021723 58 260 3.0 7.0 0.00 0.30 0.00 86 1016.7
20260901020723 58 279 3.0 10.0 0.00 0.30 0.00 86 1016.6
20260901015723 59 254 5.0 8.0 0.00 0.30 0.00 86 1016.6
20260901014723 59 240 4.0 10.0 0.00 0.30 0.00 86 1016.5
20260901013723 59 248 4.0 8.0 0.00 0.30 0.00 86 1016.5
20260901012723 59 257 3.0 6.0 0.00 0.30 0.00 86 1016.5
20260901011723 59 240 3.0 8.0 0.00 0.30 0.00 86 1016.3
20260901010723 59 238 2.0 7.0 0.00 0.30 0.00 86 1016.5
20260901005723 59 271 1.0 5.0 0.00 0.30 0.00 86 1016.5
20260901004723 59 269 4.0 10.0 0.00 0.30 0.00 86 1016.5
20260901003723 59 238 2.0 7.0 0.00 0.30 0.00 86 1016.5
20260901002723 59 275 2.0 6.0 0.00 0.30 0.00 86 1016.3
20260901001723 59 254 3.0 7.0 0.00 0.30 0.00 86 1016.3
20260901000723 59 242 4.0 8.0 0.00 0.30 0.00 86 1016.3
20260831235723 59 238 3.0 7.0 0.00 0.30 0.00 86 1016.3
20260831234723 59 242 4.0 7.0 0.00 0.30 0.00 86 1016.3